�N����,����,�~����,�C��,���x,�C��,����,���ϕ���,�ő�u�ԕ���,�ő厞����,���˗�,�I�_���x,�n�����x,�ő啗���N��,DTYPE
"18/05/20","00:10",0.0,12.3,77.2,1010.0,319.9,1.7,2.8,322.3,0.00,8.5,17.2,"00:05:54",1
"18/05/20","00:20",0.0,12.4,78.1,1010.0,317.5,2.5,3.6,296.7,0.00,8.7,17.4,"00:16:52",1
"18/05/20","00:30",0.0,12.6,76.4,1010.2,325.7,2.2,3.6,337.7,0.00,8.6,17.2,"00:26:26",1
"18/05/20","00:40",0.0,12.6,75.4,1010.4,324.3,2.1,3.9,330.6,0.00,8.4,17.3,"00:34:16",1
"18/05/20","00:50",0.0,12.6,75.7,1010.4,320.6,2.1,3.5,339.6,0.00,8.5,17.2,"00:47:54",1
"18/05/20","01:00",0.0,12.7,74.8,1010.2,327.0,2.2,4.4,325.9,0.00,8.4,17.3,"00:52:56",1
"18/05/20","01:10",0.0,12.8,74.3,1010.4,326.2,2.0,4.1,327.3,0.00,8.4,17.1,"01:05:30",1
"18/05/20","01:20",0.0,12.8,74.1,1010.2,320.9,1.8,3.3,317.1,0.00,8.3,17.0,"01:17:20",1
"18/05/20","01:30",0.0,12.8,73.3,1010.4,324.4,1.7,2.9,323.9,0.00,8.2,17.1,"01:23:36",1
"18/05/20","01:40",0.0,12.7,74.0,1010.4,307.3,1.5,2.0,337.6,0.00,8.2,17.0,"01:37:44",1
"18/05/20","01:50",0.0,12.6,75.1,1010.0,301.9,1.5,3.1,339.7,0.00,8.4,17.1,"01:40:56",1
"18/05/20","02:00",0.0,12.7,75.1,1010.2,305.1,1.5,2.7,310.3,0.00,8.4,17.0,"01:59:04",1
"18/05/20","02:10",0.0,12.9,74.4,1010.2,320.4,1.6,2.7,330.8,0.00,8.5,17.1,"02:08:00",1
"18/05/20","02:20",0.0,12.8,74.5,1010.4,312.1,1.5,2.5,335.8,0.00,8.4,17.2,"02:15:36",1
"18/05/20","02:30",0.0,12.7,75.5,1010.2,292.6,1.1,1.8,321.3,0.00,8.5,17.0,"02:20:24",1
"18/05/20","02:40",0.0,12.6,76.4,1010.2,305.2,1.3,2.9,316.1,0.00,8.6,17.0,"02:37:04",1
"18/05/20","02:50",0.0,12.6,77.1,1010.0,317.6,1.5,2.7,333.1,0.00,8.7,16.9,"02:44:24",1
"18/05/20","03:00",0.0,12.5,77.5,1010.0,326.7,1.7,3.4,335.9,0.00,8.7,16.9,"02:54:00",1
"18/05/20","03:10",0.0,12.5,77.7,1010.2,326.7,1.8,3.4,338.3,0.00,8.8,17.0,"03:00:40",1
"18/05/20","03:20",0.0,12.5,77.6,1010.2,314.9,1.5,3.7,334.5,0.00,8.7,16.7,"03:11:44",1
"18/05/20","03:30",0.0,12.5,78.1,1010.4,300.3,1.2,2.0,300.7,0.00,8.8,16.9,"03:21:20",1
"18/05/20","03:40",0.0,12.4,78.4,1010.7,317.2,1.5,2.6,331.2,0.00,8.8,16.8,"03:32:16",1
"18/05/20","03:50",0.0,12.5,78.5,1010.7,317.2,1.5,2.7,320.7,0.00,8.9,16.9,"03:46:32",1
"18/05/20","04:00",0.0,12.5,78.7,1010.7,315.7,1.5,2.8,335.7,0.00,8.9,16.8,"03:51:36",1
"18/05/20","04:10",0.0,12.5,79.1,1010.9,316.7,1.1,2.0,326.8,0.00,9.0,17.0,"04:00:08",1
"18/05/20","04:20",0.0,12.4,79.4,1010.9,319.2,1.5,2.8,334.7,0.00,9.0,16.9,"04:18:32",1
"18/05/20","04:30",0.0,12.5,79.4,1010.9,320.2,1.3,2.5,328.1,0.00,9.1,17.0,"04:25:44",1
"18/05/20","04:40",0.0,12.4,79.6,1011.2,320.3,1.3,2.2,352.1,0.00,9.0,16.8,"04:33:44",1
"18/05/20","04:50",0.0,12.4,79.2,1010.9,316.0,1.8,3.3,330.5,0.00,8.9,16.8,"04:49:12",1
"18/05/20","05:00",0.0,12.4,79.2,1011.2,314.5,1.3,2.6,341.2,0.00,8.9,16.7,"04:50:16",1
"18/05/20","05:10",0.0,12.5,79.4,1011.2,315.4,1.2,2.1,335.0,0.00,9.1,16.7,"05:03:04",1
"18/05/20","05:20",0.0,12.5,79.4,1010.9,311.0,1.3,2.2,319.7,0.00,9.1,16.7,"05:14:56",1
"18/05/20","05:30",0.0,12.6,79.2,1011.2,319.7,1.5,3.1,332.0,0.00,9.1,16.7,"05:24:32",1
"18/05/20","05:40",0.0,12.6,79.3,1011.4,304.8,1.2,2.4,320.1,0.00,9.2,16.7,"05:36:16",1
"18/05/20","05:50",0.0,12.6,79.5,1011.4,287.8,0.8,1.7,310.1,0.00,9.2,16.7,"05:41:28",1
"18/05/20","06:00",0.0,12.7,79.2,1011.6,303.2,1.2,2.6,335.7,0.00,9.2,16.7,"05:54:16",1
"18/05/20","06:10",0.0,12.9,78.8,1011.6,318.9,1.6,3.5,328.7,0.01,9.4,16.7,"06:04:56",1
"18/05/20","06:20",0.0,13.2,78.1,1011.9,330.0,2.0,3.9,331.7,0.04,9.5,16.7,"06:16:32",1
"18/05/20","06:30",0.0,13.3,77.0,1011.4,329.1,2.5,4.3,346.6,0.05,9.4,16.7,"06:22:16",1
"18/05/20","06:40",0.0,13.1,77.1,1011.9,319.3,2.1,3.7,312.0,0.02,9.2,16.8,"06:37:20",1
"18/05/20","06:50",0.0,13.4,77.3,1011.6,316.8,1.5,2.9,343.4,0.05,9.6,16.9,"06:40:56",1
"18/05/20","07:00",0.0,14.1,75.9,1012.1,316.9,1.8,3.5,330.3,0.09,10.0,16.7,"06:58:16",1
"18/05/20","07:10",0.0,15.1,73.0,1012.1,330.8,2.3,3.7,337.2,0.18,10.3,16.8,"07:04:08",1
"18/05/20","07:20",0.0,15.0,72.2,1012.3,325.5,2.5,4.7,341.8,0.14,10.1,16.8,"07:11:04",1
"18/05/20","07:30",0.0,15.6,71.2,1012.1,316.5,1.8,4.2,338.9,0.18,10.4,17.1,"07:23:44",1
"18/05/20","07:40",0.0,15.4,69.9,1012.3,353.8,1.3,3.4,354.9,0.20,10.0,17.0,"07:34:08",1
"18/05/20","07:50",0.0,15.4,69.9,1012.6,356.1,1.5,5.2,318.6,0.17,10.0,16.9,"07:44:32",1
"18/05/20","08:00",0.0,15.2,69.5,1012.6,348.2,1.8,4.0,319.3,0.17,9.7,17.2,"07:56:08",1
"18/05/20","08:10",0.0,15.1,71.8,1012.6,344.8,2.6,7.1,343.3,0.14,10.1,17.3,"08:02:56",1
"18/05/20","08:20",0.0,15.1,70.4,1012.6,339.5,3.0,8.9,341.9,0.13,9.8,17.2,"08:19:12",1
"18/05/20","08:30",0.0,16.4,64.9,1012.8,0.0,2.3,4.7,357.8,0.34,9.8,17.1,"08:28:16",1
"18/05/20","08:40",0.0,16.8,63.0,1012.3,355.1,2.2,5.4,332.2,0.41,9.8,17.6,"08:30:40",1
"18/05/20","08:50",0.0,17.1,61.2,1012.3,356.7,2.3,5.0,352.5,0.43,9.6,17.6,"08:46:24",1
"18/05/20","09:00",0.0,17.1,59.4,1012.1,4.0,2.1,6.4,31.1,0.44,9.2,17.6,"08:58:00",1
"18/05/20","09:10",0.0,17.3,60.6,1012.1,359.5,2.8,5.7,347.7,0.45,9.7,17.7,"09:00:02",1
"18/05/20","09:20",0.0,17.7,61.2,1011.9,1.7,3.2,6.0,1.3,0.48,10.2,17.9,"09:12:32",1
"18/05/20","09:30",0.0,17.4,61.1,1012.3,345.0,3.5,6.2,354.4,0.47,9.9,18.1,"09:27:20",1
"18/05/20","09:40",0.0,17.6,63.1,1012.1,344.1,2.8,8.5,344.5,0.47,10.5,18.2,"09:37:12",1
"18/05/20","09:50",0.0,17.8,62.8,1012.1,340.1,2.7,5.9,333.9,0.51,10.7,18.4,"09:48:56",1
"18/05/20","10:00",0.0,18.1,57.7,1011.6,353.4,2.6,7.7,328.4,0.53,9.7,18.7,"09:54:16",1
"18/05/20","10:10",0.0,18.3,58.9,1011.6,6.9,2.3,4.5,38.3,0.55,10.2,18.9,"10:02:00",1
"18/05/20","10:20",0.0,18.7,58.5,1011.9,357.9,2.7,4.2,7.0,0.54,10.4,19.2,"10:15:36",1
"18/05/20","10:30",0.0,18.7,57.7,1011.4,335.7,2.6,6.4,336.6,0.57,10.2,19.2,"10:25:04",1
"18/05/20","10:40",0.0,18.5,59.1,1011.6,307.3,2.2,5.6,348.3,0.59,10.4,19.6,"10:34:48",1
"18/05/20","10:50",0.0,19.0,59.1,1011.9,321.9,2.2,5.7,334.3,0.60,10.9,19.7,"10:43:44",1
"18/05/20","11:00",0.0,19.7,55.9,1011.2,287.4,1.5,4.1,305.9,0.63,10.7,19.8,"10:58:48",1
"18/05/20","11:10",0.0,19.9,53.3,1011.2,288.1,1.7,3.6,230.1,0.64,10.2,20.1,"11:09:20",1
"18/05/20","11:20",0.0,19.8,52.1,1011.2,217.0,1.5,4.0,231.1,0.56,9.7,20.4,"11:14:48",1
"18/05/20","11:30",0.0,19.0,56.9,1011.2,182.6,1.5,3.3,188.0,0.27,10.3,20.5,"11:24:08",1
"18/05/20","11:40",0.0,20.2,54.0,1010.7,169.8,1.3,3.2,106.7,0.48,10.6,20.6,"11:31:20",1
"18/05/20","11:50",0.0,20.5,55.2,1010.9,272.4,1.6,3.9,212.9,0.40,11.3,20.8,"11:41:44",1
"18/05/20","12:00",0.0,20.9,54.2,1010.7,147.8,1.6,3.9,116.5,0.45,11.3,21.1,"11:57:04",1
"18/05/20","12:10",0.0,21.3,54.7,1010.4,155.0,2.0,4.4,122.8,0.55,11.9,21.2,"12:00:56",1
"18/05/20","12:20",0.0,21.4,51.3,1010.9,69.3,1.2,3.1,110.9,0.58,11.0,21.3,"12:10:16",1
"18/05/20","12:30",0.0,21.9,51.2,1010.4,13.3,1.0,2.4,326.3,0.60,11.4,21.4,"12:25:44",1
"18/05/20","12:40",0.0,21.4,50.4,1010.7,201.7,1.5,4.1,212.6,0.63,10.7,21.6,"12:39:04",1
"18/05/20","12:50",0.0,21.1,53.7,1010.0,214.8,2.7,5.7,226.4,0.65,11.4,21.7,"12:41:52",1
"18/05/20","13:00",0.0,21.6,50.7,1010.2,147.2,2.0,3.9,169.9,0.59,11.0,22.0,"12:59:28",1
"18/05/20","13:10",0.0,21.8,49.4,1010.4,192.3,2.0,4.9,232.0,0.62,10.8,21.7,"13:09:52",1
"18/05/20","13:20",0.0,21.5,51.6,1010.4,124.8,1.6,4.3,135.2,0.46,11.2,21.9,"13:16:24",1
"18/05/20","13:30",0.0,22.2,48.0,1010.4,88.8,1.7,4.2,118.0,0.62,10.7,21.8,"13:21:52",1
"18/05/20","13:40",0.0,21.7,49.0,1010.2,156.4,1.6,3.5,149.8,0.51,10.6,21.7,"13:37:52",1
"18/05/20","13:50",0.0,21.8,49.0,1010.2,158.8,2.1,5.4,225.1,0.60,10.7,22.1,"13:42:56",1
"18/05/20","14:00",0.0,21.9,48.9,1010.2,138.3,2.0,5.1,129.2,0.59,10.7,21.8,"13:52:56",1
"18/05/20","14:10",0.0,21.7,49.0,1010.2,113.8,1.5,4.1,116.7,0.50,10.6,21.9,"14:00:16",1
"18/05/20","14:20",0.0,22.6,48.6,1010.0,313.4,1.1,2.7,333.4,0.49,11.3,22.2,"14:10:56",1
"18/05/20","14:30",0.0,21.5,46.5,1010.0,90.7,1.2,2.5,112.9,0.43,9.6,22.1,"14:24:32",1
"18/05/20","14:40",0.0,22.2,47.5,1010.0,296.2,1.0,2.4,347.4,0.38,10.6,22.2,"14:38:40",1
"18/05/20","14:50",0.0,22.2,44.4,1010.0,329.8,1.0,2.6,141.5,0.34,9.6,22.4,"14:48:16",1
"18/05/20","15:00",0.0,22.0,48.6,1010.0,174.2,1.8,3.3,129.5,0.33,10.7,22.1,"14:52:48",1
"18/05/20","15:10",0.0,22.2,47.3,1010.2,181.1,1.7,3.4,188.4,0.36,10.5,22.2,"15:06:08",1
"18/05/20","15:20",0.0,22.8,46.9,1010.0,192.8,1.6,3.4,195.3,0.32,10.9,22.5,"15:15:20",1
"18/05/20","15:30",0.0,22.6,42.0,1010.0,23.1,1.1,3.4,348.5,0.37,9.1,22.4,"15:28:32",1
"18/05/20","15:40",0.0,23.4,44.4,1010.2,246.9,0.6,2.1,337.3,0.41,10.6,22.4,"15:30:56",1
"18/05/20","15:50",0.0,23.9,41.8,1009.7,27.4,1.3,3.3,347.5,0.37,10.2,22.4,"15:46:40",1
"18/05/20","16:00",0.0,23.7,40.7,1010.2,119.5,1.3,2.9,112.8,0.31,9.6,22.4,"15:50:32",1
"18/05/20","16:10",0.0,24.1,42.2,1010.2,79.7,0.7,1.8,122.1,0.32,10.5,22.3,"16:07:36",1
"18/05/20","16:20",0.0,23.8,38.0,1010.2,256.9,0.8,2.0,236.4,0.29,8.7,22.4,"16:18:24",1
"18/05/20","16:30",0.0,23.8,42.9,1010.4,236.0,1.0,2.0,237.1,0.25,10.5,22.2,"16:26:56",1
"18/05/20","16:40",0.0,23.8,41.7,1010.2,22.6,1.1,2.7,21.9,0.21,10.1,22.1,"16:33:28",1
"18/05/20","16:50",0.0,23.6,40.6,1010.4,11.6,0.8,2.1,24.2,0.16,9.5,22.2,"16:40:16",1
"18/05/20","17:00",0.0,23.4,42.9,1010.2,353.2,1.0,2.2,344.4,0.13,10.1,22.2,"16:52:00",1
"18/05/20","17:10",0.0,23.1,42.3,1010.4,355.7,1.0,3.4,340.8,0.11,9.6,22.0,"17:00:02",1
"18/05/20","17:20",0.0,23.8,42.3,1010.7,340.7,1.0,2.6,327.9,0.10,10.3,22.1,"17:17:36",1
"18/05/20","17:30",0.0,23.8,43.2,1010.7,341.3,0.6,1.6,354.6,0.04,10.6,21.9,"17:27:36",1
"18/05/20","17:40",0.0,23.3,45.0,1010.9,169.7,0.8,3.2,32.9,0.04,10.8,22.0,"17:39:04",1
"18/05/20","17:50",0.0,23.0,46.2,1010.4,166.0,0.7,1.9,158.3,0.03,10.9,21.8,"17:40:40",1
"18/05/20","18:00",0.0,22.3,49.2,1011.2,153.5,1.5,2.8,141.7,0.02,11.2,22.0,"17:52:08",1
"18/05/20","18:10",0.0,21.6,51.8,1011.4,132.2,1.2,3.3,146.6,0.01,11.3,21.8,"18:05:44",1
"18/05/20","18:20",0.0,21.2,52.5,1011.4,107.2,1.2,2.9,103.9,0.00,11.1,21.6,"18:19:28",1
"18/05/20","18:30",0.0,21.0,53.3,1011.9,108.3,0.7,1.7,77.9,0.00,11.2,21.4,"18:29:04",1
"18/05/20","18:40",0.0,20.9,54.5,1011.9,71.9,0.7,2.6,124.4,0.00,11.4,21.4,"18:34:56",1
"18/05/20","18:50",0.0,20.6,55.5,1012.1,62.6,0.8,2.4,110.0,0.00,11.4,21.3,"18:47:12",1
"18/05/20","19:00",0.0,20.2,58.6,1012.3,315.5,1.2,2.0,338.8,0.00,11.9,21.4,"18:52:24",1
"18/05/20","19:10",0.0,19.5,63.3,1012.8,289.2,1.2,2.9,316.4,0.00,12.4,21.2,"19:02:24",1
"18/05/20","19:20",0.0,18.8,66.4,1013.0,326.6,2.0,3.7,320.7,0.00,12.5,21.0,"19:19:28",1
"18/05/20","19:30",0.0,18.4,68.0,1013.3,330.4,2.0,3.6,341.3,0.00,12.4,20.9,"19:24:32",1
"18/05/20","19:40",0.0,18.0,69.6,1013.5,330.4,1.7,3.1,331.6,0.00,12.4,20.8,"19:35:52",1
"18/05/20","19:50",0.0,17.7,71.2,1013.5,321.1,1.6,2.9,331.2,0.00,12.5,20.8,"19:43:44",1
"18/05/20","20:00",0.0,17.5,72.8,1013.8,316.0,1.6,2.4,333.8,0.00,12.6,20.7,"19:50:08",1
"18/05/20","20:10",0.0,17.3,73.6,1014.2,284.5,0.7,1.7,318.6,0.00,12.6,20.4,"20:02:32",1
"18/05/20","20:20",0.0,17.0,75.3,1014.2,285.8,0.8,2.4,318.2,0.00,12.6,20.3,"20:18:00",1
"18/05/20","20:30",0.0,17.0,75.9,1014.5,317.9,2.0,3.4,339.5,0.00,12.8,20.3,"20:24:32",1
"18/05/20","20:40",0.0,16.9,75.2,1014.2,309.9,1.2,3.5,333.6,0.00,12.5,20.2,"20:31:44",1
"18/05/20","20:50",0.0,16.5,77.3,1014.5,291.0,0.7,1.6,314.9,0.00,12.6,20.2,"20:41:44",1
"18/05/20","21:00",0.0,16.1,78.4,1014.5,287.3,1.0,1.6,306.1,0.00,12.4,19.9,"20:52:00",1
"18/05/20","21:10",0.0,15.9,79.5,1014.9,291.2,1.1,1.8,264.1,0.00,12.4,19.9,"21:05:04",1
"18/05/20","21:20",0.0,15.7,80.4,1014.9,292.6,1.3,2.1,309.1,0.00,12.4,19.8,"21:16:24",1
"18/05/20","21:30",0.0,15.5,80.8,1014.9,282.9,1.2,2.4,253.8,0.00,12.3,19.8,"21:20:24",1
"18/05/20","21:40",0.0,15.4,81.7,1014.9,297.0,1.3,2.5,335.8,0.00,12.3,19.7,"21:33:20",1
"18/05/20","21:50",0.0,15.3,82.2,1014.5,288.7,1.2,2.0,306.2,0.00,12.3,19.6,"21:43:28",1
"18/05/20","22:00",0.0,15.1,83.1,1014.7,297.6,1.5,2.7,294.9,0.00,12.3,19.3,"21:58:24",1
"18/05/20","22:10",0.0,15.1,82.9,1014.9,321.0,1.8,3.3,323.9,0.00,12.3,19.4,"22:04:16",1
"18/05/20","22:20",0.0,15.1,82.9,1014.9,328.5,1.8,2.7,330.0,0.00,12.3,19.3,"22:10:24",1
"18/05/20","22:30",0.0,15.1,83.0,1014.9,305.6,1.7,2.9,320.1,0.00,12.3,19.2,"22:24:24",1
"18/05/20","22:40",0.0,15.0,82.9,1014.7,299.8,1.0,1.9,312.4,0.00,12.2,19.1,"22:30:02",1
"18/05/20","22:50",0.0,14.9,83.5,1014.5,278.4,1.3,1.9,269.2,0.00,12.2,19.2,"22:49:12",1
"18/05/20","23:00",0.0,14.9,83.9,1014.9,297.8,1.6,2.7,316.6,0.00,12.2,19.2,"22:54:40",1
"18/05/20","23:10",0.0,14.7,84.6,1014.7,289.2,1.2,2.6,334.7,0.00,12.2,19.2,"23:00:08",1
"18/05/20","23:20",0.0,14.6,85.2,1014.7,295.6,1.3,2.0,297.9,0.00,12.2,18.9,"23:12:56",1
"18/05/20","23:30",0.0,14.4,86.2,1014.7,286.0,1.0,1.6,288.2,0.00,12.2,18.8,"23:26:00",1
"18/05/20","23:40",0.0,14.4,86.8,1014.7,304.6,1.3,2.2,315.4,0.00,12.3,18.6,"23:37:12",1
"18/05/20","23:50",0.0,14.4,87.0,1014.5,306.4,1.5,2.4,329.0,0.00,12.3,18.7,"23:44:32",1
"18/05/20","24:00",0.0,14.3,87.1,1014.7,291.8,0.8,1.4,300.4,0.00,12.2,18.8,"23:58:08",1
